Lapse_Rate
7.1 6.8 6.8 6.7 6.5 6.4 6.5 6.5 6.4 6.4 6.3 6.1 6.1 6.0 5.9 5.8 5.6 5.6 5.6 5.5 5.4 5.3 5.2 5.2 5.2 5.3 5.5 5.5 5.4 5.3 5.3 5.3
7.5 7.5 7.6 7.3 7.1 6.9 6.7 6.7 6.6 6.5 6.4 6.2 6.1 5.9 5.9 5.8 5.3 5.0 5.1 5.4 5.5 5.2 5.0 5.0 5.0 5.1 5.2 5.3 5.3 5.4 5.4 5.3
7.9 7.7 7.5 7.3 7.3 7.2 7.3 7.3 7.2 7.0 6.7 6.4 6.3 6.2 6.2 6.1 5.7 5.4 5.2 5.0 5.2 5.2 5.2 4.8 4.6 4.7 4.8 4.9 4.9 5.1 5.2 5.1
7.7 7.2 7.1 7.1 7.2 7.2 7.3 7.1 7.2 7.0 6.3 6.2 6.3 6.3 6.3 6.2 5.8 5.7 5.3 5.1 4.9 4.8 4.7 4.6 4.3 3.8 3.9 4.2 4.5 4.7 4.8 5.0
6.9 6.7 6.8 6.8 6.6 6.6 6.7 6.8 6.9 6.6 6.2 6.1 5.9 5.9 6.0 6.2 6.0 5.7 5.5 5.3 5.0 4.9 4.5 4.4 4.2 4.1 3.9 4.0 4.1 4.3 4.8 5.3
6.9 6.6 6.3 6.3 6.3 6.2 6.4 6.5 6.4 6.1 5.9 5.9 5.9 6.0 5.9 5.8 6.0 6.0 5.8 5.4 5.3 5.3 5.2 5.0 4.7 4.5 4.3 4.2 4.2 4.2 4.7 5.2
6.6 6.7 6.4 6.2 6.5 6.8 6.7 6.5 6.2 6.0 5.6 5.8 6.2 6.3 6.3 6.4 6.5 6.3 6.2 5.8 5.6 5.7 5.6 5.6 5.3 4.8 4.9 4.9 4.9 5.0 5.2 5.5
6.6 6.7 6.6 6.6 6.5 6.7 6.7 6.1 5.5 5.5 5.6 5.8 6.6 6.6 6.6 6.4 6.3 6.1 5.8 5.5 5.5 5.6 5.7 5.7 5.6 5.6 5.7 5.9 6.1 6.2 6.2 6.0
6.6 6.7 6.6 6.9 6.8 6.0 5.6 5.7 5.8 6.0 6.4 6.3 6.4 6.7 6.7 6.6 6.5 6.3 6.1 5.9 5.6 5.7 5.9 6.0 6.3 6.1 6.9 6.9 7.0 6.6 6.5 6.3
6.7 6.9 6.9 6.6 6.0 6.0 5.8 6.0 6.1 6.2 6.5 6.3 6.2 6.7 6.7 6.6 6.7 6.7 6.5 6.2 5.7 6.0 6.2 6.4 6.7 7.0 6.9 6.5 6.3 6.7 6.5 6.6
7.1 7.0 6.9 6.8 6.4 6.2 6.3 6.3 6.4 6.5 6.3 6.2 6.2 6.1 6.3 6.5 6.4 6.0 5.6 5.3 5.5 5.9 6.3 6.6 6.9 6.4 6.3 6.4 6.6 6.5 6.4 6.4
7.3 6.9 6.8 6.7 6.5 6.5 6.4 6.5 6.3 6.1 6.2 6.1 6.0 6.1 6.2 6.1 6.0 5.8 5.6 5.3 5.2 5.7 6.2 6.2 6.4 6.2 6.3 6.2 6.1 6.1 6.0 5.9
6.9 6.8 6.8 6.7 6.7 6.7 6.6 6.4 6.3 6.3 6.2 6.2 6.2 6.0 5.8 5.8 5.4 5.2 5.1 5.0 5.2 5.5 5.8 6.1 6.2 6.1 6.1 6.0 5.9 5.8 5.5 5.4
6.8 6.8 6.9 6.8 6.7 6.6 6.6 6.5 6.4 6.3 6.2 6.3 6.3 6.3 6.1 5.5 5.3 5.2 5.2 5.3 5.4 5.7 6.0 6.1 6.1 6.1 6.0 5.7 5.6 5.4 5.3 5.0
6.6 6.6 6.6 6.3 6.4 6.5 6.4 6.5 6.5 6.5 6.5 6.5 6.5 6.0 5.5 5.5 5.4 5.2 5.5 5.7 5.9 6.0 6.0 6.0 5.8 5.5 5.4 5.4 5.2 5.0 5.0 5.1
6.7 6.2 6.8 6.7 6.6 6.6 6.3 6.4 6.3 6.2 6.3 6.1 5.7 5.3 5.3 5.5 5.4 5.5 5.7 5.9 5.9 5.7 5.4 5.4 5.5 5.6 5.4 5.2 5.0 5.1 5.2 5.4
6.8 6.6 6.6 6.5 6.3 6.5 6.2 6.2 6.1 6.2 6.3 6.2 5.7 5.8 5.5 5.6 5.6 5.9 6.5 6.4 5.9 5.8 6.0 5.9 5.6 5.6 5.5 5.2 5.1 5.2 5.3 5.5
5.9 5.9 5.8 6.0 6.1 6.4 6.5 6.3 6.3 6.6 6.3 5.9 5.5 5.5 6.1 6.7 6.9 6.6 6.2 6.2 6.0 5.9 5.8 5.6 5.7 5.7 5.4 5.3 5.4 5.4 5.7 6.3
5.5 5.6 5.8 5.9 6.1 6.1 6.1 6.4 6.4 6.2 6.2 5.7 5.4 5.8 6.2 6.5 6.5 6.1 5.9 5.8 5.8 5.7 5.7 5.7 5.7 5.5 5.4 5.3 5.5 5.8 6.4 6.4
Wind_Speed
8 7 7 7 8 7 7 5 7 6 3 2 0 2 5 7 10 11 13 13 12 9 8 8 7 3 3 2 3 2 3 2
5 8 10 9 8 8 8 8 7 3 2 2 2 3 3 3 8 17 16 16 16 12 7 7 8 5 6 5 3 3 2 1
7 8 5 5 8 8 8 8 7 5 3 3 3 3 4 3 5 11 17 17 18 13 8 6 6 4 5 5 5 2 2 2
6 6 6 4 6 8 8 8 8 8 8 2 1 1 2 2 4 4 9 18 17 16 13 6 7 6 5 5 4 5 3 1
4 4 4 6 8 5 6 7 8 7 7 5 7 7 8 7 7 5 5 15 16 15 13 9 6 4 4 3 3 3 2 0
5 5 5 6 6 7 7 8 6 7 6 7 6 7 9 8 4 6 7 7 12 13 10 7 6 5 5 6 4 3 2 2
6 5 4 2 1 2 3 4 7 7 6 8 8 9 11 7 8 6 5 3 2 5 10 8 7 5 6 5 5 3 2 2
6 5 4 2 4 3 5 5 7 7 8 9 9 10 11 10 10 7 5 4 4 5 6 6 7 6 6 5 4 6 7 5
2 5 5 6 8 7 6 6 6 10 9 10 8 8 5 5 7 5 4 5 5 7 8 6 6 9 7 5 4 4 5 6
7 6 6 7 7 6 6 7 7 9 9 8 8 6 6 4 1 4 6 10 8 9 9 6 10 7 8 7 5 6 6 6
7 7 5 3 2 5 5 7 11 12 10 7 5 3 2 6 6 7 7 8 7 6 8 4 2 7 6 7 6 6 5 5
5 5 5 5 6 6 7 8 8 8 8 6 3 3 5 5 7 6 6 5 5 6 2 7 6 6 7 6 6 6 6 7
4 3 5 7 7 7 7 8 7 7 7 3 4 5 5 6 6 6 6 5 5 5 6 6 5 5 5 5 6 6 6 8
4 6 8 7 8 8 8 7 7 7 5 5 5 5 5 6 6 5 5 5 4 4 4 4 5 5 5 6 6 7 7 9
6 7 8 7 7 7 7 6 6 6 4 3 4 3 2 3 5 4 3 1 2 3 4 5 5 5 5 6 6 5 5 5
7 7 8 8 9 7 6 4 5 3 4 5 3 4 4 3 4 5 5 4 5 3 4 5 5 4 4 4 2 4 5 7
13 11 10 11 8 7 5 6 8 6 4 3 4 4 4 5 3 6 6 5 4 3 4 4 5 4 6 6 7 5 8 11
13 13 10 8 6 5 6 6 6 3 3 1 2 4 6 9 6 4 4 3 2 3 5 4 5 4 8 12 14 9 9 10
14 10 9 6 4 7 6 5 2 3 4 4 5 5 5 4 2 2 2 2 3 4 4 4 5 5 11 16 16 10 9 11
Wind_Direction
245 150 124 126 130 137 149 162 175 181 170 149 186 221 225 221 224 219 211 204 199 179 189 205 196 166 196 200 202 211 209 241
71 121 128 126 139 152 169 169 195 156 157 171 210 224 227 231 219 219 215 212 208 191 190 196 197 182 199 199 190 211 276 168
83 98 110 149 168 179 180 196 194 200 189 199 182 190 222 218 216 214 221 218 211 202 191 197 189 179 189 187 184 177 239 198
125 136 169 168 194 207 206 211 205 213 215 203 224 353 308 263 241 222 215 213 214 207 204 191 188 183 189 192 177 160 200 236
111 135 165 206 237 249 245 242 226 230 220 215 216 226 236 238 230 215 221 207 213 210 206 198 186 171 154 140 112 111 107 3
149 165 166 199 210 223 232 237 247 246 229 222 227 241 245 249 236 220 224 218 213 204 182 164 146 133 121 116 95 76 115 188
195 191 162 207 303 300 305 326 294 303 292 269 239 240 250 250 250 233 222 206 161 140 135 126 117 118 102 82 65 52 245 283
226 260 205 153 123 63 25 17 330 324 309 291 275 257 253 250 251 239 204 156 131 122 109 91 89 79 66 55 17 354 326 321
311 32 64 47 26 38 23 11 339 329 303 285 277 272 262 258 251 252 175 131 101 92 81 75 70 47 29 6 343 298 277 249
48 47 49 30 32 17 344 322 297 310 298 298 281 282 279 271 94 108 115 111 108 94 88 71 35 4 334 279 245 262 249 254
39 37 53 46 315 266 281 317 322 313 306 295 292 294 149 122 97 92 96 106 113 98 61 26 250 221 228 244 259 256 248 261
78 47 17 335 311 313 302 287 292 293 297 286 199 172 126 109 115 120 122 128 122 75 177 222 221 230 243 240 245 264 266 269
32 352 298 292 282 279 292 308 302 306 300 237 187 160 141 131 128 128 120 104 85 165 210 231 237 241 249 256 262 270 263 268
324 301 321 308 321 314 315 304 313 309 274 211 179 175 160 149 138 132 135 140 173 232 248 263 267 270 267 259 255 264 261 267
302 304 309 298 301 295 313 327 334 332 6 21 2 5 83 130 131 129 132 154 272 268 269 287 289 288 287 282 276 291 303 291
286 289 308 305 319 315 317 335 350 21 94 121 123 88 81 78 62 46 15 330 272 293 298 320 316 298 284 326 345 305 286 282
317 306 311 312 309 313 329 313 312 279 218 134 86 66 72 42 334 232 233 279 336 322 351 317 306 309 324 319 310 279 283 284
308 300 288 284 293 308 297 303 307 344 38 269 188 185 194 221 234 257 299 306 341 332 309 316 305 293 289 297 303 293 285 280
304 292 286 292 300 294 289 284 286 254 277 280 282 255 269 293 286 319 356 346 328 329 321 317 311 301 300 303 305 298 287 280